Weather History for Penn Yan, NY

Change the Weather History Date:

Tuesday, December 25, 2012

  Actual Average (KITH) Record (KITH)
Temperature  
Mean Temperature 27 °F -  
Max Temperature 30 °F 31 °F 66 °F (1932)
Min Temperature 24 °F 15 °F -15 °F (1969)
Degree Days  
Heating Degree Days 38    
Moisture  
Dew Point 24 °F    
Average Humidity 84    
Maximum Humidity 93    
Minimum Humidity 69    
Precipitation  
Precipitation 0.02 in - - ()
Sea Level Pressure  
Sea Level Pressure 30.10 in    
Wind  
Wind Speed 3 mph (NNW)    
Max Wind Speed 13 mph    
Max Gust Speed 17 mph    
Visibility 8 miles    
Events Snow    
Averages and records for this station are not official NWS values.
T = Trace of Precipitation, MM = Missing Value Source: NWS Daily Summary

Daily Weather History Graph

Daily Weather History Graph

Search for Another Location

Airport:

Trip Planner

Search our weather history database for the weather conditions in past years. The results will help you decide how hot, cold, wet, or windy it might be!

Date:

Astronomy

Dec. 25, 2012 Rise Set
Actual Time 7:36 AM EST 4:40 PM EST
Civil Twilight 7:04 AM EST 5:12 PM EST
Nautical Twilight 6:29 AM EST 5:48 PM EST
Astronomical Twilight 5:54 AM EST 6:22 PM EST
Moon 2:47 PM EST (12/25) 5:06 AM EST (12/25)
Length of Visible Light 10h 07m
Length of Day
9h 03m
Waxing Gibbous, 93% of the Moon is Illuminated
Dec 25
Waxing Gibbous
Dec 28
Full
Jan 4
Last Quarter
Jan 11
New
Jan 18
First Quarter

Hourly Weather History & Observations

Time (EST) Temp. Windchill Dew Point Humidity Pressure Visibility Wind Dir Wind Speed Gust Speed Precip Events Conditions
12:02 AM 28.4 °F - 26.6 °F 93% 29.86 in 2.0 mi Calm Calm - 0.00 in Snow Light Snow
12:09 AM 28.4 °F 24.6 °F 26.6 °F 93% 29.86 in 1.2 mi ESE 3.5 mph - 0.00 in Snow Light Snow
12:26 AM 28.4 °F - 26.6 °F 93% 29.87 in 2.5 mi Calm Calm - 0.01 in Snow Light Snow
12:35 AM 28.4 °F - 26.6 °F 93% 29.87 in 4.0 mi Calm Calm - 0.01 in Snow Light Snow
12:53 AM 28.9 °F - 27.0 °F 92% 29.90 in 6.0 mi Calm Calm - 0.01 in Snow Light Snow
12:59 AM 28.4 °F - 26.6 °F 93% 29.87 in 2.0 mi Calm Calm - 0.00 in Snow Light Snow
1:02 AM 28.4 °F - 26.6 °F 93% 29.87 in 1.5 mi Calm Calm - 0.00 in Snow Light Snow
1:21 AM 28.4 °F - 26.6 °F 93% 29.87 in 2.0 mi Calm Calm - 0.01 in Snow Light Snow
1:26 AM 28.4 °F - 26.6 °F 93% 29.87 in 3.0 mi Calm Calm - 0.01 in Snow Light Snow
1:46 AM 28.4 °F - 26.6 °F 93% 29.88 in 4.0 mi Calm Calm - 0.01 in Snow Light Snow
1:53 AM 28.9 °F - 27.0 °F 92% 29.92 in 4.0 mi Calm Calm - 0.01 in   Overcast
2:53 AM 28.9 °F - 27.0 °F 92% 29.94 in 6.0 mi Calm Calm - N/A   Overcast
3:32 AM 28.4 °F - 26.6 °F 93% 29.92 in 5.0 mi Calm Calm - N/A   Overcast
3:53 AM 28.9 °F - 27.0 °F 92% 29.95 in 6.0 mi Calm Calm - N/A   Overcast
4:53 AM 28.9 °F - 27.0 °F 92% 29.97 in 6.0 mi Calm Calm - N/A   Overcast
5:15 AM 30.2 °F - 26.6 °F 86% 29.95 in 7.0 mi Calm Calm - N/A   Overcast
5:53 AM 30.0 °F 26.5 °F 27.0 °F 88% 30.01 in 10.0 mi NNW 3.5 mph - N/A   Overcast
6:53 AM 30.0 °F 22.4 °F 26.1 °F 85% 30.05 in 10.0 mi NW 8.1 mph - N/A   Overcast
7:13 AM 30.2 °F 21.9 °F 26.6 °F 86% 30.03 in 10.0 mi NW 9.2 mph - N/A   Overcast
7:48 AM 28.4 °F 20.4 °F 26.6 °F 93% 30.05 in 7.0 mi NW 8.1 mph - N/A   Overcast
7:53 AM 28.9 °F 21.9 °F 26.1 °F 89% 30.09 in 6.0 mi WNW 6.9 mph - N/A   Overcast
8:28 AM 28.4 °F 20.4 °F 26.6 °F 93% 30.09 in 10.0 mi North 8.1 mph - N/A   Overcast
8:53 AM 28.9 °F 22.8 °F 26.1 °F 89% 30.14 in 10.0 mi NNW 5.8 mph - N/A   Overcast
9:38 AM 30.2 °F 22.6 °F 24.8 °F 80% 30.13 in 10.0 mi NNW 8.1 mph - N/A   Overcast
9:53 AM 30.0 °F 21.7 °F 24.1 °F 79% 30.17 in 10.0 mi NNW 9.2 mph - N/A   Overcast
10:09 AM 28.4 °F 20.4 °F 23.0 °F 80% 30.15 in 10.0 mi NNW 8.1 mph - N/A   Overcast
10:53 AM 28.9 °F 18.6 °F 21.9 °F 75% 30.20 in 10.0 mi NNW 12.7 mph 17.3 mph N/A   Overcast
11:02 AM 28.4 °F 20.4 °F 21.2 °F 74% 30.16 in 10.0 mi NNW 8.1 mph - N/A   Mostly Cloudy
11:31 AM 30.2 °F 21.3 °F 21.2 °F 69% 30.15 in 10.0 mi North 10.4 mph - N/A   Mostly Cloudy
11:53 AM 30.0 °F 21.7 °F 21.9 °F 72% 30.18 in 10.0 mi NNW 9.2 mph 16.1 mph N/A   Overcast
12:53 PM 28.9 °F 22.8 °F 21.9 °F 75% 30.18 in 10.0 mi Variable 5.8 mph - N/A   Overcast
1:53 PM 30.0 °F 23.2 °F 21.0 °F 69% 30.22 in 10.0 mi NNW 6.9 mph - N/A   Scattered Clouds
2:19 PM 30.2 °F 25.4 °F 21.2 °F 69% 30.19 in 10.0 mi NNE 4.6 mph - N/A   Mostly Cloudy
2:53 PM 28.9 °F 25.2 °F 21.0 °F 72% 30.24 in 10.0 mi Variable 3.5 mph - N/A   Overcast
3:53 PM 27.0 °F 20.5 °F 21.0 °F 78% 30.25 in 10.0 mi North 5.8 mph - N/A   Overcast
4:53 PM 27.0 °F - 21.0 °F 78% 30.28 in 10.0 mi Calm Calm - N/A   Overcast
5:11 PM 26.6 °F 21.2 °F 21.2 °F 80% 30.24 in 10.0 mi Variable 4.6 mph - N/A   Overcast
5:53 PM 27.0 °F - 21.0 °F 78% 30.31 in 10.0 mi Calm Calm - N/A   Overcast
6:53 PM 27.0 °F - 21.0 °F 78% 30.32 in 10.0 mi Calm Calm - N/A   Overcast
7:53 PM 27.0 °F 23.0 °F 21.0 °F 78% 30.34 in 10.0 mi North 3.5 mph - N/A   Overcast
8:53 PM 27.0 °F - 21.0 °F 78% 30.34 in 10.0 mi Calm Calm - N/A   Overcast
9:53 PM 26.1 °F - 21.0 °F 81% 30.33 in 9.0 mi Calm Calm - N/A   Overcast
10:50 PM 26.6 °F 22.6 °F 21.2 °F 80% 30.30 in 10.0 mi NE 3.5 mph - N/A   Overcast
10:53 PM 26.1 °F - 21.0 °F 81% 30.34 in 10.0 mi Calm Calm - N/A   Overcast
11:05 PM 24.8 °F - 21.2 °F 86% 30.30 in 10.0 mi Calm Calm - N/A   Overcast
11:53 PM 25.0 °F - 21.0 °F 85% 30.33 in 10.0 mi Calm Calm - N/A   Overcast